Time,TemperatureF,DewpointF,PressureIn,WindDirection,WindDirectionDegrees,WindSpeedMPH,WindSpeedGustMPH,Humidity,HourlyPrecipIn,Conditions,Clouds,dailyrainin,SoftwareType,DateUTC
2013-12-06 00:03:00,38.9,38.9,29.95,NW,321,0.0,0.0,100,0.00,,,0.00,WUHU216DAVISWMX,2013-12-06 05:03:00,
2013-12-06 00:08:00,38.9,38.9,29.95,NW,321,0.0,0.0,100,0.00,,,0.00,WUHU216DAVISWMX,2013-12-06 05:08:00,
2013-12-06 00:13:00,39.0,39.0,29.95,NW,321,0.0,0.0,100,0.00,,,0.00,WUHU216DAVISWMX,2013-12-06 05:13:00,
2013-12-06 00:18:00,39.0,39.0,29.94,NW,321,0.0,0.0,100,0.00,,,0.00,WUHU216DAVISWMX,2013-12-06 05:18:00,
2013-12-06 00:23:00,39.0,39.0,29.95,NW,321,0.0,0.0,100,0.00,,,0.00,WUHU216DAVISWMX,2013-12-06 05:23:00,
2013-12-06 00:28:00,39.1,39.1,29.95,NW,321,0.0,0.0,100,0.00,,,0.00,WUHU216DAVISWMX,2013-12-06 05:28:00,
2013-12-06 00:33:00,39.1,39.1,29.96,NW,322,0.0,0.0,100,0.00,,,0.00,WUHU216DAVISWMX,2013-12-06 05:33:00,
2013-12-06 00:38:00,39.1,39.1,29.96,NW,321,0.0,0.0,100,0.00,,,0.00,WUHU216DAVISWMX,2013-12-06 05:38:00,
2013-12-06 00:43:00,39.1,39.1,29.95,NW,321,0.0,0.0,100,0.00,,,0.00,WUHU216DAVISWMX,2013-12-06 05:43:00,
2013-12-06 00:48:00,39.2,39.2,29.95,NW,321,0.0,0.0,100,0.00,,,0.00,WUHU216DAVISWMX,2013-12-06 05:48:00,
2013-12-06 00:53:00,39.3,39.3,29.95,NW,321,0.0,0.0,100,0.00,,,0.00,WUHU216DAVISWMX,2013-12-06 05:53:00,
2013-12-06 00:58:00,39.3,39.3,29.95,NW,321,0.0,0.0,100,0.00,,,0.00,WUHU216DAVISWMX,2013-12-06 05:58:00,
2013-12-06 01:03:00,39.2,39.2,29.95,NW,322,0.0,0.0,100,0.00,,,0.00,WUHU216DAVISWMX,2013-12-06 06:03:00,
2013-12-06 01:08:00,39.3,39.3,29.94,NW,321,0.0,0.0,100,0.00,,,0.00,WUHU216DAVISWMX,2013-12-06 06:08:00,
2013-12-06 01:13:00,39.3,39.3,29.94,NW,321,0.0,0.0,100,0.00,,,0.00,WUHU216DAVISWMX,2013-12-06 06:13:00,
2013-12-06 01:18:00,39.4,39.4,29.93,NW,321,0.0,0.0,100,0.00,,,0.00,WUHU216DAVISWMX,2013-12-06 06:18:00,
2013-12-06 01:23:00,39.4,39.4,29.93,NW,321,0.0,0.0,100,0.00,,,0.00,WUHU216DAVISWMX,2013-12-06 06:23:00,
2013-12-06 01:28:00,39.5,39.5,29.93,NW,321,0.0,0.0,100,0.00,,,0.00,WUHU216DAVISWMX,2013-12-06 06:28:00,
2013-12-06 01:33:00,39.6,39.6,29.93,NW,322,0.0,0.0,100,0.00,,,0.00,WUHU216DAVISWMX,2013-12-06 06:33:00,
2013-12-06 01:38:00,39.7,39.7,29.94,NW,321,0.0,0.0,100,0.00,,,0.00,WUHU216DAVISWMX,2013-12-06 06:38:00,
2013-12-06 01:43:00,39.7,39.7,29.94,NW,321,0.0,0.0,100,0.00,,,0.00,WUHU216DAVISWMX,2013-12-06 06:43:00,
2013-12-06 01:48:00,39.8,39.8,29.94,NW,321,0.0,0.0,100,0.00,,,0.00,WUHU216DAVISWMX,2013-12-06 06:48:00,
2013-12-06 01:53:00,39.9,39.9,29.94,NW,321,0.0,0.0,100,0.00,,,0.00,WUHU216DAVISWMX,2013-12-06 06:53:00,
2013-12-06 01:58:00,39.9,39.9,29.95,NW,321,0.0,0.0,100,0.00,,,0.00,WUHU216DAVISWMX,2013-12-06 06:58:00,
2013-12-06 02:03:00,40.1,40.1,29.95,NW,321,0.0,0.0,100,0.00,,,0.00,WUHU216DAVISWMX,2013-12-06 07:03:00,
2013-12-06 02:08:00,40.2,40.2,29.95,NW,321,0.0,0.0,100,0.00,,,0.00,WUHU216DAVISWMX,2013-12-06 07:08:00,
2013-12-06 02:13:00,40.2,40.2,29.95,NW,321,0.0,0.0,100,0.00,,,0.00,WUHU216DAVISWMX,2013-12-06 07:13:00,
2013-12-06 02:18:00,40.3,40.3,29.95,NW,321,0.0,0.0,100,0.00,,,0.00,WUHU216DAVISWMX,2013-12-06 07:18:00,
2013-12-06 02:23:00,40.4,40.4,29.95,NW,321,0.0,0.0,100,0.00,,,0.00,WUHU216DAVISWMX,2013-12-06 07:23:00,
2013-12-06 02:28:00,40.5,40.5,29.93,NW,321,0.0,0.0,100,0.00,,,0.00,WUHU216DAVISWMX,2013-12-06 07:28:00,
2013-12-06 02:33:00,40.6,40.6,29.92,NW,321,0.0,0.0,100,0.00,,,0.00,WUHU216DAVISWMX,2013-12-06 07:33:00,
2013-12-06 02:38:00,40.6,40.6,29.92,NW,321,0.0,0.0,100,0.00,,,0.00,WUHU216DAVISWMX,2013-12-06 07:38:00,
2013-12-06 02:43:00,40.7,40.7,29.92,NW,321,0.0,0.0,100,0.00,,,0.00,WUHU216DAVISWMX,2013-12-06 07:43:00,
2013-12-06 02:48:00,40.7,40.7,29.91,NW,321,0.0,0.0,100,0.00,,,0.00,WUHU216DAVISWMX,2013-12-06 07:48:00,
2013-12-06 02:54:00,40.7,40.7,29.91,NW,321,0.0,0.0,100,0.00,,,0.00,WUHU216DAVISWMX,2013-12-06 07:54:00,
2013-12-06 02:59:00,40.9,40.9,29.93,NW,321,0.0,0.0,100,0.00,,,0.00,WUHU216DAVISWMX,2013-12-06 07:59:00,
2013-12-06 03:04:00,41.0,41.0,29.93,NW,321,0.0,0.0,100,0.00,,,0.00,WUHU216DAVISWMX,2013-12-06 08:04:00,
2013-12-06 03:09:00,41.0,41.0,29.93,NW,321,0.0,0.0,100,0.00,,,0.00,WUHU216DAVISWMX,2013-12-06 08:09:00,
2013-12-06 03:14:00,41.1,41.1,29.93,NW,321,0.0,0.0,100,0.00,,,0.00,WUHU216DAVISWMX,2013-12-06 08:14:00,
2013-12-06 03:19:00,41.1,41.1,29.93,NW,321,0.0,0.0,100,0.00,,,0.00,WUHU216DAVISWMX,2013-12-06 08:19:00,
2013-12-06 03:24:00,41.3,41.3,29.93,NW,321,0.0,0.0,100,0.00,,,0.00,WUHU216DAVISWMX,2013-12-06 08:24:00,
2013-12-06 03:29:00,41.3,41.3,29.93,NW,321,0.0,0.0,100,0.00,,,0.00,WUHU216DAVISWMX,2013-12-06 08:29:00,
2013-12-06 03:34:00,41.3,41.3,29.93,NW,321,0.0,0.0,100,0.00,,,0.00,WUHU216DAVISWMX,2013-12-06 08:34:00,
2013-12-06 03:39:00,41.4,41.4,29.92,NW,321,0.0,0.0,100,0.00,,,0.00,WUHU216DAVISWMX,2013-12-06 08:39:00,
2013-12-06 03:44:00,41.4,41.4,29.91,NW,321,0.0,0.0,100,0.00,,,0.00,WUHU216DAVISWMX,2013-12-06 08:44:00,
2013-12-06 03:49:00,41.5,41.5,29.91,NW,321,0.0,0.0,100,0.00,,,0.00,WUHU216DAVISWMX,2013-12-06 08:49:00,
2013-12-06 03:54:00,41.5,41.5,29.92,NW,321,0.0,0.0,100,0.00,,,0.00,WUHU216DAVISWMX,2013-12-06 08:54:00,
2013-12-06 03:59:00,41.5,41.5,29.91,NW,321,0.0,0.0,100,0.00,,,0.00,WUHU216DAVISWMX,2013-12-06 08:59:00,
2013-12-06 04:04:00,41.6,41.6,29.92,NW,321,0.0,0.0,100,0.00,,,0.00,WUHU216DAVISWMX,2013-12-06 09:04:00,
2013-12-06 04:09:00,41.6,41.6,29.92,NW,321,0.0,0.0,100,0.00,,,0.00,WUHU216DAVISWMX,2013-12-06 09:09:00,
2013-12-06 04:14:00,41.7,41.7,29.92,NW,321,0.0,0.0,100,0.00,,,0.00,WUHU216DAVISWMX,2013-12-06 09:14:00,
2013-12-06 04:19:00,41.7,41.7,29.92,NW,321,0.0,0.0,100,0.00,,,0.00,WUHU216DAVISWMX,2013-12-06 09:19:00,
2013-12-06 04:24:00,41.8,41.8,29.92,NW,321,0.0,0.0,100,0.00,,,0.00,WUHU216DAVISWMX,2013-12-06 09:24:00,
2013-12-06 04:29:00,41.9,41.9,29.92,NW,321,0.0,0.0,100,0.00,,,0.00,WUHU216DAVISWMX,2013-12-06 09:29:00,
2013-12-06 04:34:00,42.0,42.0,29.93,NW,321,0.0,0.0,100,0.00,,,0.00,WUHU216DAVISWMX,2013-12-06 09:34:00,
2013-12-06 04:39:00,42.0,42.0,29.92,NW,321,0.0,0.0,100,0.00,,,0.00,WUHU216DAVISWMX,2013-12-06 09:39:00,
2013-12-06 04:44:00,42.2,42.2,29.93,NW,321,0.0,0.0,100,0.00,,,0.00,WUHU216DAVISWMX,2013-12-06 09:44:00,
2013-12-06 04:49:00,42.2,42.2,29.93,NW,321,0.0,0.0,100,0.00,,,0.00,WUHU216DAVISWMX,2013-12-06 09:49:00,
2013-12-06 04:54:00,42.4,42.4,29.93,NW,321,0.0,0.0,100,0.00,,,0.00,WUHU216DAVISWMX,2013-12-06 09:54:00,
2013-12-06 04:59:00,42.5,42.5,29.93,NW,321,0.0,0.0,100,0.00,,,0.00,WUHU216DAVISWMX,2013-12-06 09:59:00,
2013-12-06 05:04:00,42.5,42.5,29.93,NW,321,0.0,0.0,100,0.00,,,0.00,WUHU216DAVISWMX,2013-12-06 10:04:00,
2013-12-06 05:09:00,42.5,42.5,29.93,NW,321,0.0,0.0,100,0.00,,,0.00,WUHU216DAVISWMX,2013-12-06 10:09:00,
2013-12-06 05:14:00,42.7,42.7,29.93,NW,321,0.0,0.0,100,0.00,,,0.00,WUHU216DAVISWMX,2013-12-06 10:14:00,
2013-12-06 05:19:00,42.7,42.7,29.93,NW,321,0.0,0.0,100,0.00,,,0.00,WUHU216DAVISWMX,2013-12-06 10:19:00,
2013-12-06 05:24:00,42.7,42.7,29.93,NW,321,0.0,0.0,100,0.00,,,0.00,WUHU216DAVISWMX,2013-12-06 10:24:00,
2013-12-06 05:29:00,42.8,42.8,29.93,NW,321,0.0,0.0,100,0.00,,,0.00,WUHU216DAVISWMX,2013-12-06 10:29:00,
2013-12-06 05:34:00,42.8,42.8,29.94,NW,321,0.0,0.0,100,0.00,,,0.00,WUHU216DAVISWMX,2013-12-06 10:34:00,
2013-12-06 05:39:00,42.9,42.9,29.94,NW,321,0.0,0.0,100,0.00,,,0.00,WUHU216DAVISWMX,2013-12-06 10:39:00,
2013-12-06 05:44:00,42.9,42.9,29.94,NW,321,0.0,0.0,100,0.00,,,0.00,WUHU216DAVISWMX,2013-12-06 10:44:00,
2013-12-06 05:49:00,42.9,42.9,29.94,NW,321,0.0,0.0,100,0.00,,,0.00,WUHU216DAVISWMX,2013-12-06 10:49:00,
2013-12-06 05:54:00,42.9,42.9,29.96,NW,321,0.0,0.0,100,0.00,,,0.00,WUHU216DAVISWMX,2013-12-06 10:54:00,
2013-12-06 05:59:00,42.9,42.9,29.96,NW,321,0.0,0.0,100,0.00,,,0.00,WUHU216DAVISWMX,2013-12-06 10:59:00,
2013-12-06 06:04:00,43.1,43.1,29.97,NW,321,0.0,0.0,100,0.00,,,0.00,WUHU216DAVISWMX,2013-12-06 11:04:00,
2013-12-06 06:09:00,43.2,43.2,29.96,NW,321,0.0,0.0,100,0.00,,,0.00,WUHU216DAVISWMX,2013-12-06 11:09:00,
2013-12-06 06:14:00,44.3,44.3,29.97,NW,319,0.0,0.0,100,0.00,,,0.00,WUHU216DAVISWMX,2013-12-06 11:14:00,
2013-12-06 06:19:00,45.6,45.6,29.97,NW,319,0.0,0.0,100,0.00,,,0.00,WUHU216DAVISWMX,2013-12-06 11:19:00,
2013-12-06 06:24:00,46.7,46.7,29.97,NW,319,0.0,0.0,100,0.00,,,0.00,WUHU216DAVISWMX,2013-12-06 11:24:00,
2013-12-06 06:29:00,47.6,47.6,29.98,NW,319,0.0,0.0,100,0.01,,,0.01,WUHU216DAVISWMX,2013-12-06 11:29:00,
2013-12-06 06:34:00,48.2,48.2,29.98,NW,319,0.0,0.0,100,0.01,,,0.01,WUHU216DAVISWMX,2013-12-06 11:34:00,
2013-12-06 06:39:00,48.1,48.1,29.97,NW,318,0.0,0.0,100,0.01,,,0.01,WUHU216DAVISWMX,2013-12-06 11:39:00,
2013-12-06 06:44:00,47.9,47.9,29.97,NW,319,0.0,0.0,100,0.01,,,0.01,WUHU216DAVISWMX,2013-12-06 11:44:00,
2013-12-06 06:49:00,47.8,47.8,29.98,NW,319,0.0,0.0,100,0.01,,,0.01,WUHU216DAVISWMX,2013-12-06 11:49:00,
2013-12-06 06:54:00,47.6,47.6,29.98,NW,318,0.0,0.0,100,0.01,,,0.01,WUHU216DAVISWMX,2013-12-06 11:54:00,
2013-12-06 06:59:00,47.4,47.4,29.98,NW,319,0.0,0.0,100,0.01,,,0.01,WUHU216DAVISWMX,2013-12-06 11:59:00,
2013-12-06 07:04:00,47.3,47.3,29.98,NW,319,0.0,0.0,100,0.01,,,0.01,WUHU216DAVISWMX,2013-12-06 12:04:00,
2013-12-06 07:09:00,47.2,47.2,29.98,NW,319,0.0,0.0,100,0.01,,,0.01,WUHU216DAVISWMX,2013-12-06 12:09:00,
2013-12-06 07:14:00,47.0,47.0,29.96,NW,318,0.0,0.0,100,0.01,,,0.01,WUHU216DAVISWMX,2013-12-06 12:14:00,
2013-12-06 07:19:00,47.0,47.0,29.96,NW,319,0.0,0.0,100,0.01,,,0.01,WUHU216DAVISWMX,2013-12-06 12:19:00,
2013-12-06 07:24:00,47.0,47.0,29.96,NW,318,0.0,0.0,100,0.01,,,0.01,WUHU216DAVISWMX,2013-12-06 12:24:00,
2013-12-06 07:29:00,46.9,46.9,29.96,NW,319,0.0,0.0,100,0.00,,,0.01,WUHU216DAVISWMX,2013-12-06 12:29:00,
2013-12-06 07:34:00,46.9,46.9,29.96,NW,318,0.0,0.0,100,0.00,,,0.01,WUHU216DAVISWMX,2013-12-06 12:34:00,
2013-12-06 07:39:00,46.6,46.6,29.97,NW,319,0.0,0.0,100,0.00,,,0.01,WUHU216DAVISWMX,2013-12-06 12:39:00,
2013-12-06 07:44:00,46.5,46.5,29.97,NW,319,0.0,0.0,100,0.00,,,0.01,WUHU216DAVISWMX,2013-12-06 12:44:00,
2013-12-06 07:49:00,46.4,46.4,29.98,NW,319,0.0,0.0,100,0.00,,,0.01,WUHU216DAVISWMX,2013-12-06 12:49:00,
2013-12-06 07:54:00,46.3,46.3,29.99,NW,319,0.0,0.0,100,0.00,,,0.01,WUHU216DAVISWMX,2013-12-06 12:54:00,
2013-12-06 07:59:00,46.3,46.3,30.00,NW,319,0.0,0.0,100,0.00,,,0.01,WUHU216DAVISWMX,2013-12-06 12:59:00,
2013-12-06 08:04:00,46.4,46.4,30.01,NW,319,0.0,0.0,100,0.00,,,0.01,WUHU216DAVISWMX,2013-12-06 13:04:00,
2013-12-06 08:09:00,46.4,46.4,30.00,NW,318,0.0,0.0,100,0.00,,,0.01,WUHU216DAVISWMX,2013-12-06 13:09:00,
2013-12-06 08:14:00,46.4,46.4,30.00,NW,319,0.0,0.0,100,0.00,,,0.01,WUHU216DAVISWMX,2013-12-06 13:14:00,
2013-12-06 08:19:00,46.4,46.4,29.99,NW,319,0.0,0.0,100,0.00,,,0.01,WUHU216DAVISWMX,2013-12-06 13:19:00,
2013-12-06 08:24:00,46.5,46.5,29.99,NW,319,0.0,0.0,100,0.00,,,0.01,WUHU216DAVISWMX,2013-12-06 13:24:00,
2013-12-06 08:29:00,46.6,46.6,30.00,NW,319,0.0,0.0,100,0.00,,,0.01,WUHU216DAVISWMX,2013-12-06 13:29:00,
2013-12-06 08:34:00,46.5,46.5,30.01,NW,319,0.0,0.0,100,0.00,,,0.01,WUHU216DAVISWMX,2013-12-06 13:34:00,
2013-12-06 08:39:00,46.6,46.6,30.01,NW,319,0.0,0.0,100,0.00,,,0.01,WUHU216DAVISWMX,2013-12-06 13:39:00,
2013-12-06 08:44:00,46.5,46.5,30.02,NW,319,0.0,0.0,100,0.00,,,0.01,WUHU216DAVISWMX,2013-12-06 13:44:00,
2013-12-06 08:49:00,46.5,46.5,30.02,NW,318,0.0,0.0,100,0.00,,,0.01,WUHU216DAVISWMX,2013-12-06 13:49:00,
2013-12-06 08:54:00,46.6,46.6,30.03,NW,318,0.0,0.0,100,0.00,,,0.01,WUHU216DAVISWMX,2013-12-06 13:54:00,
2013-12-06 08:59:00,46.7,46.7,30.03,NW,318,0.0,0.0,100,0.00,,,0.01,WUHU216DAVISWMX,2013-12-06 13:59:00,
2013-12-06 09:04:00,46.8,46.8,30.03,NW,319,0.0,0.0,100,0.00,,,0.01,WUHU216DAVISWMX,2013-12-06 14:04:00,
2013-12-06 09:09:00,46.8,46.8,30.04,NW,319,0.0,0.0,100,0.00,,,0.01,WUHU216DAVISWMX,2013-12-06 14:09:00,
2013-12-06 09:14:00,46.7,46.7,30.03,NW,319,0.0,0.0,100,0.00,,,0.01,WUHU216DAVISWMX,2013-12-06 14:14:00,
2013-12-06 09:19:00,46.8,46.8,30.03,NW,319,0.0,0.0,100,0.00,,,0.01,WUHU216DAVISWMX,2013-12-06 14:19:00,
2013-12-06 09:24:00,46.7,46.7,30.04,NW,318,0.0,0.0,100,0.00,,,0.01,WUHU216DAVISWMX,2013-12-06 14:24:00,
2013-12-06 09:29:00,46.8,46.8,30.04,NW,318,0.0,0.0,100,0.00,,,0.01,WUHU216DAVISWMX,2013-12-06 14:29:00,
2013-12-06 09:34:00,46.8,46.8,30.04,NW,319,0.0,0.0,100,0.00,,,0.01,WUHU216DAVISWMX,2013-12-06 14:34:00,
2013-12-06 09:39:00,47.0,47.0,30.03,NW,318,0.0,0.0,100,0.00,,,0.01,WUHU216DAVISWMX,2013-12-06 14:39:00,
2013-12-06 09:44:00,46.9,46.9,30.02,NW,319,0.0,0.0,100,0.00,,,0.01,WUHU216DAVISWMX,2013-12-06 14:44:00,
2013-12-06 09:49:00,47.1,47.1,30.02,NW,319,0.0,0.0,100,0.00,,,0.01,WUHU216DAVISWMX,2013-12-06 14:49:00,
2013-12-06 09:54:00,47.1,47.1,30.02,NW,316,0.0,0.0,100,0.00,,,0.01,WUHU216DAVISWMX,2013-12-06 14:54:00,
2013-12-06 09:59:00,47.0,47.0,30.03,NW,316,0.0,0.0,100,0.00,,,0.01,WUHU216DAVISWMX,2013-12-06 14:59:00,
2013-12-06 10:04:00,47.0,47.0,30.03,NW,316,0.0,0.0,100,0.00,,,0.01,WUHU216DAVISWMX,2013-12-06 15:04:00,
2013-12-06 10:09:00,46.9,46.9,30.03,NW,320,0.0,3.0,100,0.00,,,0.01,WUHU216DAVISWMX,2013-12-06 15:09:00,
2013-12-06 10:14:00,46.8,46.8,30.03,NW,320,0.0,3.0,100,0.00,,,0.01,WUHU216DAVISWMX,2013-12-06 15:14:00,
2013-12-06 10:19:00,46.9,46.9,30.04,NW,320,0.0,0.0,100,0.00,,,0.01,WUHU216DAVISWMX,2013-12-06 15:19:00,
2013-12-06 10:24:00,46.9,46.9,30.03,NW,323,0.0,0.0,100,0.00,,,0.01,WUHU216DAVISWMX,2013-12-06 15:24:00,
2013-12-06 10:29:00,46.9,46.9,30.03,NW,314,0.0,0.0,100,0.00,,,0.01,WUHU216DAVISWMX,2013-12-06 15:29:00,
2013-12-06 10:34:00,46.9,46.9,30.03,NW,314,0.0,0.0,100,0.00,,,0.01,WUHU216DAVISWMX,2013-12-06 15:34:00,
2013-12-06 10:39:00,46.9,46.9,30.03,NW,319,0.0,0.0,100,0.00,,,0.01,WUHU216DAVISWMX,2013-12-06 15:39:00,
2013-12-06 10:44:00,46.8,46.8,30.04,NW,319,0.0,0.0,100,0.00,,,0.01,WUHU216DAVISWMX,2013-12-06 15:44:00,
2013-12-06 10:49:00,46.9,46.9,30.03,NW,319,0.0,0.0,100,0.00,,,0.01,WUHU216DAVISWMX,2013-12-06 15:49:00,
2013-12-06 10:54:00,46.8,46.8,30.03,NW,323,0.0,0.0,100,0.00,,,0.01,WUHU216DAVISWMX,2013-12-06 15:54:00,
2013-12-06 10:59:00,46.8,46.8,30.02,NW,308,0.0,1.0,100,0.00,,,0.01,WUHU216DAVISWMX,2013-12-06 15:59:00,
2013-12-06 11:04:00,46.7,46.7,30.02,NW,318,0.0,1.0,100,0.00,,,0.01,WUHU216DAVISWMX,2013-12-06 16:04:00,
2013-12-06 11:09:00,46.6,46.6,30.02,NW,325,0.0,2.0,100,0.00,,,0.01,WUHU216DAVISWMX,2013-12-06 16:09:00,
2013-12-06 11:14:00,46.6,46.6,30.02,NNW,329,0.0,2.0,100,0.00,,,0.01,WUHU216DAVISWMX,2013-12-06 16:14:00,
2013-12-06 11:19:00,46.6,46.6,30.02,NW,326,0.0,1.0,100,0.00,,,0.01,WUHU216DAVISWMX,2013-12-06 16:19:00,
2013-12-06 11:24:00,46.6,46.6,30.03,NW,321,0.0,2.0,100,0.00,,,0.01,WUHU216DAVISWMX,2013-12-06 16:24:00,
2013-12-06 11:29:00,46.6,46.6,30.02,NW,321,0.0,2.0,100,0.00,,,0.01,WUHU216DAVISWMX,2013-12-06 16:29:00,
2013-12-06 11:34:00,46.6,46.6,30.02,NW,321,0.0,0.0,100,0.00,,,0.01,WUHU216DAVISWMX,2013-12-06 16:34:00,
2013-12-06 11:39:00,46.6,46.6,30.03,NW,314,0.0,5.0,100,0.00,,,0.01,WUHU216DAVISWMX,2013-12-06 16:39:00,
2013-12-06 11:44:00,46.5,46.5,30.03,NW,325,0.0,5.0,100,0.00,,,0.01,WUHU216DAVISWMX,2013-12-06 16:44:00,
2013-12-06 11:49:00,46.5,46.5,30.03,NW,325,0.0,3.0,100,0.00,,,0.01,WUHU216DAVISWMX,2013-12-06 16:49:00,
2013-12-06 11:54:00,46.3,46.3,30.03,NW,325,0.0,0.0,100,0.00,,,0.01,WUHU216DAVISWMX,2013-12-06 16:54:00,
2013-12-06 11:59:00,46.4,46.4,30.03,NW,325,0.0,0.0,100,0.00,,,0.01,WUHU216DAVISWMX,2013-12-06 16:59:00,
2013-12-06 12:04:00,46.4,46.4,30.04,NW,325,0.0,0.0,100,0.00,,,0.01,WUHU216DAVISWMX,2013-12-06 17:04:00,
2013-12-06 12:09:00,46.2,46.2,30.04,NNW,332,0.0,0.0,100,0.00,,,0.01,WUHU216DAVISWMX,2013-12-06 17:09:00,
2013-12-06 12:14:00,46.1,46.1,30.05,NW,325,0.0,3.0,100,0.00,,,0.01,WUHU216DAVISWMX,2013-12-06 17:14:00,
2013-12-06 12:19:00,46.0,46.0,30.04,NW,326,0.0,3.0,100,0.00,,,0.01,WUHU216DAVISWMX,2013-12-06 17:19:00,
2013-12-06 12:24:00,46.0,46.0,30.03,WNW,299,0.0,3.0,100,0.00,,,0.01,WUHU216DAVISWMX,2013-12-06 17:24:00,
2013-12-06 12:29:00,46.1,46.1,30.03,WNW,300,0.0,3.0,100,0.00,,,0.01,WUHU216DAVISWMX,2013-12-06 17:29:00,
2013-12-06 12:34:00,46.1,45.8,30.04,NW,316,0.0,0.0,99,0.00,,,0.01,WUHU216DAVISWMX,2013-12-06 17:34:00,
2013-12-06 12:39:00,46.0,45.7,30.05,NW,325,0.0,4.0,99,0.00,,,0.01,WUHU216DAVISWMX,2013-12-06 17:39:00,
2013-12-06 12:44:00,46.0,45.4,30.04,NW,325,0.0,4.0,98,0.00,,,0.01,WUHU216DAVISWMX,2013-12-06 17:44:00,
2013-12-06 12:50:00,45.9,45.1,30.04,WNW,301,0.0,0.0,97,0.00,,,0.01,WUHU216DAVISWMX,2013-12-06 17:50:00,
2013-12-06 12:55:00,46.0,45.2,30.04,NW,319,0.0,0.0,97,0.00,,,0.01,WUHU216DAVISWMX,2013-12-06 17:55:00,
2013-12-06 13:00:00,45.9,45.1,30.04,NW,318,0.0,0.0,97,0.00,,,0.01,WUHU216DAVISWMX,2013-12-06 18:00:00,
2013-12-06 13:05:00,46.0,44.9,30.03,NW,318,0.0,0.0,96,0.00,,,0.01,WUHU216DAVISWMX,2013-12-06 18:05:00,
2013-12-06 13:10:00,46.1,44.7,30.03,NW,318,0.0,0.0,95,0.00,,,0.01,WUHU216DAVISWMX,2013-12-06 18:10:00,
2013-12-06 13:15:00,46.3,44.9,30.02,NW,321,0.0,0.0,95,0.00,,,0.01,WUHU216DAVISWMX,2013-12-06 18:15:00,
2013-12-06 13:20:00,46.4,45.0,30.04,NW,318,0.0,0.0,95,0.00,,,0.01,WUHU216DAVISWMX,2013-12-06 18:20:00,
2013-12-06 13:25:00,46.5,44.8,30.04,NW,318,0.0,0.0,94,0.00,,,0.01,WUHU216DAVISWMX,2013-12-06 18:25:00,
2013-12-06 13:30:00,46.5,44.8,30.03,NW,318,0.0,0.0,94,0.00,,,0.01,WUHU216DAVISWMX,2013-12-06 18:30:00,
2013-12-06 13:35:00,46.4,45.0,30.02,NW,318,0.0,0.0,95,0.00,,,0.01,WUHU216DAVISWMX,2013-12-06 18:35:00,
2013-12-06 13:40:00,46.4,44.7,30.03,NW,318,0.0,0.0,94,0.00,,,0.01,WUHU216DAVISWMX,2013-12-06 18:40:00,
2013-12-06 13:45:00,46.4,44.7,30.02,NW,318,0.0,0.0,94,0.00,,,0.01,WUHU216DAVISWMX,2013-12-06 18:45:00,
2013-12-06 13:50:00,46.4,45.0,30.02,NW,318,0.0,0.0,95,0.00,,,0.01,WUHU216DAVISWMX,2013-12-06 18:50:00,
2013-12-06 13:55:00,46.5,45.1,30.03,NW,318,0.0,0.0,95,0.00,,,0.01,WUHU216DAVISWMX,2013-12-06 18:55:00,
2013-12-06 14:00:00,46.5,45.1,30.03,WNW,296,0.0,0.0,95,0.00,,,0.01,WUHU216DAVISWMX,2013-12-06 19:00:00,
2013-12-06 14:05:00,46.5,45.1,30.02,NW,304,0.0,0.0,95,0.00,,,0.01,WUHU216DAVISWMX,2013-12-06 19:05:00,
2013-12-06 14:10:00,46.5,45.4,30.03,WNW,303,0.0,0.0,96,0.00,,,0.01,WUHU216DAVISWMX,2013-12-06 19:10:00,
2013-12-06 14:15:00,46.6,45.8,30.03,WSW,241,0.0,0.0,97,0.00,,,0.01,WUHU216DAVISWMX,2013-12-06 19:15:00,
2013-12-06 14:20:00,46.5,45.7,30.04,WSW,257,0.0,0.0,97,0.00,,,0.01,WUHU216DAVISWMX,2013-12-06 19:20:00,
2013-12-06 14:25:00,46.4,45.3,30.03,NW,321,0.0,0.0,96,0.00,,,0.01,WUHU216DAVISWMX,2013-12-06 19:25:00,
2013-12-06 14:30:00,46.2,45.1,30.04,NW,320,0.0,0.0,96,0.00,,,0.01,WUHU216DAVISWMX,2013-12-06 19:30:00,
2013-12-06 14:35:00,46.2,44.8,30.04,WNW,291,0.0,0.0,95,0.00,,,0.01,WUHU216DAVISWMX,2013-12-06 19:35:00,
2013-12-06 14:40:00,46.1,44.7,30.04,WNW,292,0.0,0.0,95,0.00,,,0.01,WUHU216DAVISWMX,2013-12-06 19:40:00,
2013-12-06 14:45:00,46.0,44.3,30.04,WNW,301,0.0,0.0,94,0.00,,,0.01,WUHU216DAVISWMX,2013-12-06 19:45:00,
2013-12-06 14:50:00,45.9,44.2,30.04,NNW,333,0.0,0.0,94,0.00,,,0.01,WUHU216DAVISWMX,2013-12-06 19:50:00,
2013-12-06 14:55:00,45.7,44.0,30.03,WNW,291,0.0,0.0,94,0.00,,,0.01,WUHU216DAVISWMX,2013-12-06 19:55:00,
2013-12-06 15:00:00,45.6,43.9,30.04,NW,320,0.0,0.0,94,0.00,,,0.01,WUHU216DAVISWMX,2013-12-06 20:00:00,
2013-12-06 15:05:00,45.6,43.6,30.03,NW,320,0.0,0.0,93,0.00,,,0.01,WUHU216DAVISWMX,2013-12-06 20:05:00,
2013-12-06 15:10:00,45.5,43.8,30.04,NW,320,0.0,0.0,94,0.00,,,0.01,WUHU216DAVISWMX,2013-12-06 20:10:00,
2013-12-06 15:15:00,45.4,43.4,30.04,NW,320,0.0,0.0,93,0.00,,,0.01,WUHU216DAVISWMX,2013-12-06 20:15:00,
2013-12-06 15:20:00,45.3,43.1,30.04,NW,323,0.0,0.0,92,0.00,,,0.01,WUHU216DAVISWMX,2013-12-06 20:20:00,
2013-12-06 15:25:00,45.2,42.4,30.06,NW,323,0.0,0.0,90,0.00,,,0.01,WUHU216DAVISWMX,2013-12-06 20:25:00,
2013-12-06 15:30:00,45.2,42.4,30.06,NW,323,0.0,0.0,90,0.00,,,0.01,WUHU216DAVISWMX,2013-12-06 20:30:00,
2013-12-06 15:35:00,45.1,42.3,30.05,NW,323,0.0,0.0,90,0.00,,,0.01,WUHU216DAVISWMX,2013-12-06 20:35:00,
2013-12-06 15:40:00,45.1,42.6,30.06,NW,323,0.0,0.0,91,0.00,,,0.01,WUHU216DAVISWMX,2013-12-06 20:40:00,
2013-12-06 15:45:00,45.0,42.5,30.06,NW,323,0.0,0.0,91,0.00,,,0.01,WUHU216DAVISWMX,2013-12-06 20:45:00,
2013-12-06 15:50:00,44.9,42.4,30.07,NW,323,0.0,0.0,91,0.00,,,0.01,WUHU216DAVISWMX,2013-12-06 20:50:00,
2013-12-06 15:55:00,44.7,42.5,30.07,NW,323,0.0,0.0,92,0.00,,,0.01,WUHU216DAVISWMX,2013-12-06 20:55:00,
2013-12-06 16:00:00,44.7,42.5,30.08,NW,323,0.0,0.0,92,0.00,,,0.01,WUHU216DAVISWMX,2013-12-06 21:00:00,
2013-12-06 16:05:00,44.6,42.4,30.09,NW,323,0.0,0.0,92,0.00,,,0.01,WUHU216DAVISWMX,2013-12-06 21:05:00,
2013-12-06 16:10:00,44.6,41.8,30.08,NW,323,0.0,0.0,90,0.00,,,0.01,WUHU216DAVISWMX,2013-12-06 21:10:00,
2013-12-06 16:15:00,44.4,41.3,30.08,NW,323,0.0,0.0,89,0.00,,,0.01,WUHU216DAVISWMX,2013-12-06 21:15:00,
2013-12-06 16:20:00,44.3,40.4,30.09,NW,320,0.0,0.0,86,0.00,,,0.01,WUHU216DAVISWMX,2013-12-06 21:20:00,
2013-12-06 16:25:00,44.2,39.7,30.10,NW,323,0.0,0.0,84,0.00,,,0.01,WUHU216DAVISWMX,2013-12-06 21:25:00,
2013-12-06 16:30:00,44.2,40.0,30.10,NW,323,0.0,0.0,85,0.00,,,0.01,WUHU216DAVISWMX,2013-12-06 21:30:00,
2013-12-06 16:35:00,44.1,40.5,30.09,NW,323,0.0,0.0,87,0.00,,,0.01,WUHU216DAVISWMX,2013-12-06 21:35:00,
2013-12-06 16:40:00,44.1,40.7,30.09,NW,323,0.0,0.0,88,0.00,,,0.01,WUHU216DAVISWMX,2013-12-06 21:40:00,
2013-12-06 16:45:00,44.1,40.7,30.08,NW,323,0.0,0.0,88,0.00,,,0.01,WUHU216DAVISWMX,2013-12-06 21:45:00,
2013-12-06 16:50:00,43.9,40.8,30.08,NW,323,0.0,0.0,89,0.00,,,0.01,WUHU216DAVISWMX,2013-12-06 21:50:00,
2013-12-06 16:55:00,43.9,41.1,30.08,NW,323,0.0,0.0,90,0.00,,,0.01,WUHU216DAVISWMX,2013-12-06 21:55:00,
2013-12-06 17:00:00,43.8,41.3,30.08,NW,323,0.0,0.0,91,0.00,,,0.01,WUHU216DAVISWMX,2013-12-06 22:00:00,
2013-12-06 17:05:00,43.8,41.6,30.08,NW,323,0.0,0.0,92,0.00,,,0.01,WUHU216DAVISWMX,2013-12-06 22:05:00,
2013-12-06 17:10:00,43.9,41.7,30.09,NW,323,0.0,0.0,92,0.00,,,0.01,WUHU216DAVISWMX,2013-12-06 22:10:00,
2013-12-06 17:15:00,43.7,41.5,30.09,NW,323,0.0,0.0,92,0.00,,,0.01,WUHU216DAVISWMX,2013-12-06 22:15:00,
2013-12-06 17:20:00,43.7,41.5,30.08,NW,323,0.0,0.0,92,0.00,,,0.01,WUHU216DAVISWMX,2013-12-06 22:20:00,
2013-12-06 17:25:00,43.5,41.6,30.08,NW,323,0.0,0.0,93,0.00,,,0.01,WUHU216DAVISWMX,2013-12-06 22:25:00,
2013-12-06 17:30:00,43.4,41.7,30.09,NW,323,0.0,0.0,94,0.00,,,0.01,WUHU216DAVISWMX,2013-12-06 22:30:00,
2013-12-06 17:35:00,43.4,41.7,30.09,NW,323,0.0,0.0,94,0.00,,,0.01,WUHU216DAVISWMX,2013-12-06 22:35:00,
2013-12-06 17:40:00,43.3,41.9,30.08,NW,323,0.0,0.0,95,0.00,,,0.01,WUHU216DAVISWMX,2013-12-06 22:40:00,
2013-12-06 17:45:00,43.3,41.9,30.09,NW,323,0.0,0.0,95,0.00,,,0.01,WUHU216DAVISWMX,2013-12-06 22:45:00,
2013-12-06 17:50:00,43.2,41.8,30.09,NW,323,0.0,0.0,95,0.00,,,0.01,WUHU216DAVISWMX,2013-12-06 22:50:00,
2013-12-06 17:55:00,43.2,42.1,30.10,NW,323,0.0,0.0,96,0.00,,,0.01,WUHU216DAVISWMX,2013-12-06 22:55:00,
2013-12-06 18:00:00,43.1,42.0,30.10,NW,323,0.0,0.0,96,0.00,,,0.01,WUHU216DAVISWMX,2013-12-06 23:00:00,
2013-12-06 18:05:00,43.1,42.3,30.10,NW,323,0.0,0.0,97,0.00,,,0.01,WUHU216DAVISWMX,2013-12-06 23:05:00,
2013-12-06 18:10:00,43.0,42.2,30.11,NW,323,0.0,0.0,97,0.00,,,0.01,WUHU216DAVISWMX,2013-12-06 23:10:00,
2013-12-06 18:15:00,42.8,42.0,30.11,NW,323,0.0,0.0,97,0.00,,,0.01,WUHU216DAVISWMX,2013-12-06 23:15:00,
2013-12-06 18:20:00,42.6,41.8,30.12,NW,323,0.0,0.0,97,0.01,,,0.02,WUHU216DAVISWMX,2013-12-06 23:20:00,
2013-12-06 18:25:00,42.4,41.6,30.13,NW,323,0.0,0.0,97,0.01,,,0.02,WUHU216DAVISWMX,2013-12-06 23:25:00,
2013-12-06 18:30:00,42.2,41.7,30.12,NW,323,0.0,0.0,98,0.02,,,0.03,WUHU216DAVISWMX,2013-12-06 23:30:00,
2013-12-06 18:35:00,42.0,41.5,30.12,NW,323,0.0,0.0,98,0.02,,,0.03,WUHU216DAVISWMX,2013-12-06 23:35:00,
2013-12-06 18:40:00,41.6,41.1,30.12,NW,323,0.0,0.0,98,0.03,,,0.04,WUHU216DAVISWMX,2013-12-06 23:40:00,
2013-12-06 18:45:00,41.2,40.9,30.12,NW,323,0.0,0.0,99,0.03,,,0.04,WUHU216DAVISWMX,2013-12-06 23:45:00,
2013-12-06 18:50:00,41.2,40.9,30.12,NW,323,0.0,0.0,99,0.04,,,0.05,WUHU216DAVISWMX,2013-12-06 23:50:00,
2013-12-06 18:55:00,41.1,41.1,30.12,NW,323,0.0,0.0,100,0.04,,,0.05,WUHU216DAVISWMX,2013-12-06 23:55:00,
2013-12-06 19:00:00,41.0,41.0,30.12,NW,323,0.0,0.0,100,0.05,,,0.06,WUHU216DAVISWMX,2013-12-07 00:00:00,
2013-12-06 19:05:00,40.7,40.7,30.12,NW,323,0.0,0.0,100,0.05,,,0.06,WUHU216DAVISWMX,2013-12-07 00:05:00,
2013-12-06 19:10:00,40.5,40.5,30.13,NW,323,0.0,0.0,100,0.06,,,0.07,WUHU216DAVISWMX,2013-12-07 00:10:00,
2013-12-06 19:15:00,40.3,40.3,30.14,NW,323,0.0,0.0,100,0.06,,,0.07,WUHU216DAVISWMX,2013-12-07 00:15:00,
2013-12-06 19:20:00,40.0,40.0,30.14,NW,323,0.0,0.0,100,0.05,,,0.07,WUHU216DAVISWMX,2013-12-07 00:20:00,
2013-12-06 19:25:00,40.0,40.0,30.15,NW,323,0.0,0.0,100,0.05,,,0.07,WUHU216DAVISWMX,2013-12-07 00:25:00,
2013-12-06 19:30:00,40.0,40.0,30.14,NW,323,0.0,0.0,100,0.04,,,0.07,WUHU216DAVISWMX,2013-12-07 00:30:00,
2013-12-06 19:35:00,40.2,40.2,30.13,NW,323,0.0,0.0,100,0.05,,,0.08,WUHU216DAVISWMX,2013-12-07 00:35:00,
2013-12-06 19:40:00,40.2,40.2,30.13,NW,323,0.0,0.0,100,0.04,,,0.08,WUHU216DAVISWMX,2013-12-07 00:40:00,
2013-12-06 19:45:00,40.2,40.2,30.13,NW,323,0.0,0.0,100,0.04,,,0.08,WUHU216DAVISWMX,2013-12-07 00:45:00,
2013-12-06 19:50:00,40.0,40.0,30.13,NW,323,0.0,0.0,100,0.04,,,0.09,WUHU216DAVISWMX,2013-12-07 00:50:00,
2013-12-06 19:55:00,39.9,39.9,30.12,NW,323,0.0,0.0,100,0.04,,,0.09,WUHU216DAVISWMX,2013-12-07 00:55:00,
2013-12-06 20:00:00,39.8,39.8,30.13,NW,323,0.0,0.0,100,0.04,,,0.10,WUHU216DAVISWMX,2013-12-07 01:00:00,
2013-12-06 20:05:00,39.6,39.6,30.14,NW,323,0.0,0.0,100,0.03,,,0.10,WUHU216DAVISWMX,2013-12-07 01:05:00,
2013-12-06 20:10:00,39.6,39.6,30.15,NW,323,0.0,0.0,100,0.04,,,0.11,WUHU216DAVISWMX,2013-12-07 01:10:00,
2013-12-06 20:15:00,39.5,39.5,30.14,NW,323,0.0,0.0,100,0.04,,,0.11,WUHU216DAVISWMX,2013-12-07 01:15:00,
2013-12-06 20:20:00,39.4,39.4,30.14,NW,323,0.0,0.0,100,0.05,,,0.12,WUHU216DAVISWMX,2013-12-07 01:20:00,
2013-12-06 20:25:00,39.3,39.3,30.14,NW,323,0.0,0.0,100,0.06,,,0.13,WUHU216DAVISWMX,2013-12-07 01:25:00,
2013-12-06 20:30:00,39.4,39.4,30.14,NW,323,0.0,0.0,100,0.06,,,0.13,WUHU216DAVISWMX,2013-12-07 01:30:00,
2013-12-06 20:35:00,39.1,39.1,30.14,NW,323,0.0,0.0,100,0.06,,,0.14,WUHU216DAVISWMX,2013-12-07 01:35:00,
2013-12-06 20:40:00,38.9,38.9,30.14,NW,323,0.0,0.0,100,0.06,,,0.14,WUHU216DAVISWMX,2013-12-07 01:40:00,
2013-12-06 20:45:00,38.9,38.9,30.15,NW,323,0.0,0.0,100,0.06,,,0.14,WUHU216DAVISWMX,2013-12-07 01:45:00,
2013-12-06 20:50:00,38.7,38.7,30.15,NW,323,0.0,0.0,100,0.06,,,0.15,WUHU216DAVISWMX,2013-12-07 01:50:00,
2013-12-06 20:55:00,38.7,38.7,30.16,NW,323,0.0,0.0,100,0.06,,,0.15,WUHU216DAVISWMX,2013-12-07 01:55:00,
2013-12-06 21:00:00,38.7,38.7,30.18,NW,323,0.0,0.0,100,0.06,,,0.16,WUHU216DAVISWMX,2013-12-07 02:00:00,
2013-12-06 21:05:00,38.5,38.5,30.20,NW,323,0.0,0.0,100,0.06,,,0.16,WUHU216DAVISWMX,2013-12-07 02:05:00,
2013-12-06 21:10:00,38.5,38.5,30.22,NW,323,0.0,0.0,100,0.05,,,0.16,WUHU216DAVISWMX,2013-12-07 02:10:00,
2013-12-06 21:15:00,38.3,38.3,30.23,NW,323,0.0,0.0,100,0.05,,,0.17,WUHU216DAVISWMX,2013-12-07 02:15:00,
2013-12-06 21:20:00,38.1,38.1,30.21,NW,323,0.0,0.0,100,0.05,,,0.17,WUHU216DAVISWMX,2013-12-07 02:20:00,
2013-12-06 21:25:00,38.0,38.0,30.21,NW,323,0.0,0.0,100,0.04,,,0.17,WUHU216DAVISWMX,2013-12-07 02:25:00,
2013-12-06 21:30:00,37.9,37.9,30.20,NW,323,0.0,0.0,100,0.05,,,0.18,WUHU216DAVISWMX,2013-12-07 02:30:00,
2013-12-06 21:35:00,37.7,37.7,30.21,NW,323,0.0,0.0,100,0.05,,,0.19,WUHU216DAVISWMX,2013-12-07 02:35:00,
2013-12-06 21:40:00,37.3,37.3,30.21,NW,323,0.0,0.0,100,0.06,,,0.20,WUHU216DAVISWMX,2013-12-07 02:40:00,
2013-12-06 21:45:00,37.0,37.0,30.20,NW,323,0.0,0.0,100,0.06,,,0.20,WUHU216DAVISWMX,2013-12-07 02:45:00,
2013-12-06 21:50:00,36.8,36.8,30.19,NW,323,0.0,0.0,100,0.06,,,0.21,WUHU216DAVISWMX,2013-12-07 02:50:00,
2013-12-06 21:55:00,36.7,36.7,30.19,NW,323,0.0,0.0,100,0.06,,,0.21,WUHU216DAVISWMX,2013-12-07 02:55:00,
2013-12-06 22:00:00,36.4,36.4,30.18,NW,323,0.0,0.0,100,0.05,,,0.21,WUHU216DAVISWMX,2013-12-07 03:00:00,
2013-12-06 22:05:00,36.4,36.4,30.17,NW,323,0.0,0.0,100,0.05,,,0.21,WUHU216DAVISWMX,2013-12-07 03:05:00,
2013-12-06 22:10:00,36.1,36.1,30.16,NW,323,0.0,0.0,100,0.05,,,0.21,WUHU216DAVISWMX,2013-12-07 03:10:00,
2013-12-06 22:15:00,36.0,36.0,30.16,NW,323,0.0,0.0,100,0.05,,,0.22,WUHU216DAVISWMX,2013-12-07 03:15:00,
2013-12-06 22:20:00,35.9,35.9,30.15,NW,323,0.0,0.0,100,0.05,,,0.22,WUHU216DAVISWMX,2013-12-07 03:20:00,
2013-12-06 22:25:00,35.8,35.8,30.16,NW,323,0.0,0.0,100,0.04,,,0.22,WUHU216DAVISWMX,2013-12-07 03:25:00,
2013-12-06 22:30:00,35.7,35.7,30.16,NW,323,0.0,0.0,100,0.04,,,0.22,WUHU216DAVISWMX,2013-12-07 03:30:00,
2013-12-06 22:35:00,35.7,35.7,30.16,NW,323,0.0,0.0,100,0.03,,,0.22,WUHU216DAVISWMX,2013-12-07 03:35:00,
2013-12-06 22:40:00,35.5,35.5,30.17,NW,323,0.0,0.0,100,0.03,,,0.23,WUHU216DAVISWMX,2013-12-07 03:40:00,
2013-12-06 22:45:00,35.4,35.4,30.17,NW,323,0.0,0.0,100,0.03,,,0.23,WUHU216DAVISWMX,2013-12-07 03:45:00,
2013-12-06 22:50:00,35.4,35.4,30.19,NW,323,0.0,0.0,100,0.02,,,0.23,WUHU216DAVISWMX,2013-12-07 03:50:00,
2013-12-06 22:55:00,35.3,35.3,30.20,NW,323,0.0,0.0,100,0.02,,,0.23,WUHU216DAVISWMX,2013-12-07 03:55:00,
2013-12-06 23:00:00,35.1,35.1,30.20,NW,323,0.0,0.0,100,0.02,,,0.23,WUHU216DAVISWMX,2013-12-07 04:00:00,
2013-12-06 23:05:00,35.0,35.0,30.20,NW,323,0.0,0.0,100,0.02,,,0.23,WUHU216DAVISWMX,2013-12-07 04:05:00,
2013-12-06 23:10:00,34.9,34.9,30.19,NW,323,0.0,0.0,100,0.02,,,0.23,WUHU216DAVISWMX,2013-12-07 04:10:00,
2013-12-06 23:15:00,35.0,35.0,30.19,NW,323,0.0,0.0,100,0.01,,,0.23,WUHU216DAVISWMX,2013-12-07 04:15:00,
2013-12-06 23:20:00,34.9,34.9,30.19,NW,323,0.0,0.0,100,0.01,,,0.23,WUHU216DAVISWMX,2013-12-07 04:20:00,
2013-12-06 23:25:00,34.9,34.9,30.19,NW,323,0.0,0.0,100,0.01,,,0.23,WUHU216DAVISWMX,2013-12-07 04:25:00,
2013-12-06 23:30:00,35.0,35.0,30.18,NW,323,0.0,0.0,100,0.01,,,0.23,WUHU216DAVISWMX,2013-12-07 04:30:00,
2013-12-06 23:35:00,34.9,34.9,30.18,NW,323,0.0,0.0,100,0.00,,,0.23,WUHU216DAVISWMX,2013-12-07 04:35:00,
2013-12-06 23:40:00,34.8,34.8,30.18,NW,323,0.0,0.0,100,0.00,,,0.23,WUHU216DAVISWMX,2013-12-07 04:40:00,
2013-12-06 23:45:00,34.7,34.7,30.18,NW,323,0.0,0.0,100,0.00,,,0.23,WUHU216DAVISWMX,2013-12-07 04:45:00,
2013-12-06 23:51:00,34.7,34.7,30.18,NW,323,0.0,0.0,100,0.00,,,0.23,WUHU216DAVISWMX,2013-12-07 04:51:00,
2013-12-06 23:56:00,34.5,34.5,30.18,NW,323,0.0,0.0,100,0.00,,,0.23,WUHU216DAVISWMX,2013-12-07 04:56:00,